This is the latest recevied weather packets stored in our database for station/object N7NIP. If no packets are shown the sender has not sent any weather packets the latest 1 day(s).
| Time | Temp. | Humidity | Pressure | Rain* | Wind** | Luminosity | Snow |
|---|---|---|---|---|---|---|---|
| 1778044194 | 11.67° C | 96% | 1030 hPa | 0 mm | 0.45 m/s, 101° | 0 W/m² | - |
| 1778043892 | 11.67° C | 96% | 1030 hPa | 0 mm | 0.89 m/s, 104° | 0 W/m² | - |
| 1778043589 | 11.67° C | 95% | 1029.8 hPa | 0 mm | 0.89 m/s, 115° | 0 W/m² | - |
| 1778043285 | 11.67° C | 95% | 1030 hPa | 0 mm | 0.45 m/s, 79° | 0 W/m² | - |
| 1778042982 | 11.67° C | 95% | 1030.1 hPa | 0 mm | 0.89 m/s, 82° | 0 W/m² | - |
| 1778042680 | 11.67° C | 95% | 1030.2 hPa | 0 mm | 0.45 m/s, 116° | 0 W/m² | - |
| 1778042377 | 11.67° C | 94% | 1029.8 hPa | 0 mm | 0.89 m/s, 119° | 0 W/m² | - |
| 1778042074 | 12.22° C | 94% | 1029.7 hPa | 0 mm | 0.45 m/s, 95° | 0 W/m² | - |
| 1778041772 | 12.22° C | 94% | 1029.6 hPa | 0 mm | 0 m/s | 0 W/m² | - |
| 1778041471 | 12.22° C | 93% | 1029.7 hPa | 0 mm | 0 m/s | 0 W/m² | - |
| 1778041169 | 12.22° C | 93% | 1029.6 hPa | 0 mm | 0.89 m/s, 118° | 0 W/m² | - |
| 1778040866 | 12.22° C | 93% | 1029.5 hPa | 0 mm | 0.89 m/s, 115° | 0 W/m² | - |
| 1778040563 | 12.22° C | 92% | 1029.7 hPa | 0 mm | 0.45 m/s, 75° | 0 W/m² | - |
| 1778040261 | 12.22° C | 92% | 1029.5 hPa | 0 mm | 0.89 m/s, 60° | 0 W/m² | - |
| 1778039956 | 12.22° C | 92% | 1029.4 hPa | 0 mm | 0.89 m/s, 103° | 0 W/m² | - |
| 1778039654 | 12.22° C | 91% | 1029.5 hPa | 0 mm | 0.45 m/s, 59° | 0 W/m² | - |
| 1778039351 | 12.78° C | 90% | 1029.5 hPa | 0 mm | 0 m/s | 0 W/m² | - |
| 1778039048 | 12.78° C | 90% | 1029.5 hPa | 0 mm | 0 m/s | 0 W/m² | - |
| 1778038745 | 12.78° C | 89% | 1029.4 hPa | 0 mm | 0.89 m/s, 88° | 1 W/m² | - |
| 1778038442 | 12.78° C | 89% | 1029.4 hPa | 0 mm | 0.45 m/s, 83° | 2 W/m² | - |
| 1778038139 | 12.78° C | 88% | 1029.2 hPa | 0 mm | 0.45 m/s, 84° | 3 W/m² | - |
| 1778037836 | 13.33° C | 87% | 1029.4 hPa | 0 mm | 0.45 m/s, 67° | 5 W/m² | - |
| 1778037533 | 13.33° C | 86% | 1029.2 hPa | 0 mm | 0.45 m/s, 86° | 7 W/m² | - |
| 1778037230 | 13.89° C | 86% | 1029.3 hPa | 0 mm | 0.45 m/s, 123° | 10 W/m² | - |
| 1778036928 | 13.89° C | 85% | 1029.1 hPa | 0 mm | 0.89 m/s, 66° | 13 W/m² | - |
* Rain latest hour (hover to see other rain measurements)
** Current wind speed in m/s (hover to see current wind gust speed)